Regional Weather Roundup
Issued by NWS

Home | Current Version | Previous Version | Graphics & Text | Print | Product List | Glossary On
Versions: 1 2 3 4 5 6 7 8 9 10 11 12 13 14 15 16 17 18 19 20 21 22 23 24 25 26 27 28 29 30 31 32 33 34 35 36 37 38 39 40 41 42 43 44 45 46 47 48 49 50
000
ASUS43 KDTX 020110
RWRMI
MICHIGAN HOURLY REGIONAL WEATHER ROUNDUP
NATIONAL WEATHER SERVICE DETROIT/PONTIAC MI
800 PM EST SUN FEB 01 2015

NOTE: "FAIR" INDICATES FEW OR NO CLOUDS BELOW 12,000 FEET WITH NO
SIGNIFICANT WEATHER AND/OR OBSTRUCTION TO VISIBILITY.

MIZ047>049-052>055-059>063-066>070-074>076-081>083-020200-
SOUTHEAST LOWER MICHIGAN

CITY           SKY/WX    TMP DP  RH WIND       PRES   REMARKS
ADRIAN         SNOW      19  16  88 NE17      29.68F VSB 1/2
ALMA           LGT SNOW  13  11  89 NE17G25   29.89F WCI  -3
ANN ARBOR      SNOW      19  16  88 NE14G23   29.72F VSB 1/2
BAD AXE        LGT SNOW  16  13  90 NE15G28   29.92F
DETROIT CITY   HVY SNOW  20  15  81 NE16G24   29.76F VSB 1/4
DETROIT        SNOW      20  17  88 NE13G25   29.74F VSB 1/2
FLINT          LGT SNOW  18  13  80 NE21      29.81F VSB 1
GROSSE ILE     LGT SNOW  19  16  86 NE22G28   29.71F
HILLSDALE      LGT SNOW  19  16  90 NE12G22   29.66F VSB 1
HOWELL         LGT SNOW  16  14  92 NE9G16    29.75F

CITY           SKY/WX    TMP DP  RH WIND       PRES   REMARKS
JACKSON        SNOW      16  12  84 NE13      29.72F VSB 1/2
LAMBERTVILLE   LGT SNOW  23  19  86 NE10G20   29.68F VSB 3/4
LANSING        LGT SNOW  15  10  80 NE21      29.82S VSB 3/4 WCI  -2
LAPEER         NOT AVBL
MASON          LGT SNOW  15  11  86 N14G25    29.77F
MONROE         LGT SNOW  19  18  93 NE16G22   29.69F
MT. CLEMENS    LGT SNOW  18  14  86 NE18      29.76F VSB 1
PONTIAC        LGT SNOW  17  14  88 NE15G25   29.75F VSB 3/4
PORT HOPE        N/A     18  13  80 NE29G36   29.95F WCI  -1
PORT HURON     LGT SNOW  16  14  93 NE17G25   29.82F WCI   0
TRI CITIES     SNOW      16  12  84 NE30G36   29.90F VSB 1/2 WCI  -4
YPSILANTI      SNOW      22  15  75 NE18      29.73F VSB 1/2
$$
MIZ043>046-050>051-056>058-064>065-071>073-077>080-020200-
SOUTHWEST LOWER MICHIGAN

CITY           SKY/WX    TMP DP  RH WIND       PRES   REMARKS
BATTLE CREEK   LGT SNOW  16  11  80 NE18G28   29.73F VSB 3/4 WCI   0
BENTON HARBOR  LGT SNOW  15  13  91 NE9G23    29.76R VSB 1
BIG RAPIDS     LGT SNOW  10   8  89 NE12      29.90F WCI  -4
COLDWATER      LGT SNOW  16  13  88 MISG      29.70S
HOLLAND        LGT SNOW  15  10  80 NE14G28   29.83S VSB 1
GRAND RAPIDS   LGT SNOW  13   9  84 NE18      29.81F VSB 3/4 WCI  -4
KALAMAZOO      LGT SNOW  16  11  80 NE13G26   29.74F VSB 3/4
MARSHALL       LGT SNOW  14  11  87 NE10G17   29.73F
MUSKEGON       LGT SNOW  14   9  80 NE18G24   29.90R VSB 3/4 WCI  -3
$$
MIZ016>042-020200-
NORTHERN LOWER MICHIGAN

CITY           SKY/WX    TMP DP  RH WIND       PRES   REMARKS
ALPENA         LGT SNOW   7   3  84 NE16G22   30.09F FOG     WCI -11
BEAVER ISLAND  CLOUDY     1 -12  55 CALM      30.15F
BELLAIRE       CLOUDY     7  -1  69 N9        30.09S
CADILLAC       LGT SNOW   5   1  80 N13G22    29.93S WCI -11
CHARLEVOIX     CLOUDY     3  -2  77 NE12      30.14F WCI -13
FRANKFORT      CLOUDY    10   3  75 NE10G17   30.05S WCI  -4
GAYLORD        CLOUDY     2  -2  83 NE13      30.00F WCI -15
GRAYLING       CLOUDY     6  -1  73 NE12G20   30.01F WCI -10
HARBOR SPRINGS CLOUDY     3  -4  72 NE14      30.10F WCI -15
HOUGHTON LAKE  LGT SNOW   5   0  79 NE14G24   29.97F WCI -12
MANISTEE       CLOUDY    10   1  67 NE13G23   30.01F WCI  -5
OSCODA         LGT SNOW  14  10  83 NE21G30   30.01F WCI  -4
PELLSTON       CLOUDY     2  -8  63 N12       30.13F WCI -15
TRAVERSE CITY  CLOUDY     9   0  67 NE14      30.06S WCI  -7
$$
MIZ007>008-015-020200-
EASTERN UPPER MICHIGAN

CITY           SKY/WX    TMP DP  RH WIND       PRES   REMARKS
KINROSS        CLOUDY    -2  -9  71 N3        30.16F
MACKINAC ISLAN CLOUDY     1 -10  58 NE10      30.15S WCI -15
NEWBERRY       MOCLDY    -4  -9  76 N5        30.16S
S. S. MARIE    CLOUDY     1 -11  57 NE6       30.17F
$$
MIZ004>006-011>014-085-020200-
CENTRAL UPPER MICHIGAN

CITY           SKY/WX    TMP DP  RH WIND       PRES   REMARKS
MANISTIQUE     CLOUDY     4  -6  63 N8        30.16F
ESCANABA       CLOUDY     9   1  72 NE9       30.16F
MENOMINEE      CLOUDY    10   1  67 NE17G25   30.13S WCI  -7
SAWYER-GWINN   LGT SNOW   9   3  78 NE12      30.12F WCI  -6
$$
MIZ001>003-009>011-084-020200-
WESTERN UPPER MICHIGAN

CITY           SKY/WX    TMP DP  RH WIND       PRES   REMARKS
IRON MOUNTAIN  CLOUDY     8  -1  66 N14G23    30.12F WCI  -8
HOUGHTON       LGT SNOW   2  -2  83 NW3       30.20F FOG
COPPER HARBOR    N/A      9   1  70 NE15G21   30.23F WCI  -8
IRONWOOD       CLOUDY     9   5  85 N6        30.17S
$$

ABBREVIATIONS USED IN REMARKS
   TC - TEMPERATURE IN CELSIUS
  WCI - WIND CHILL INDEX
   HX - HEAT INDEX
  VSB - VISIBILITY




USA.gov is the U.S. government's official web portal to all federal, state and local government web resources and services.